Location: Unspecified
(0.0000°N, 0.0000°E)
Time: 16:55:36
(UTC+01:00)

H-2A R/B - Visible Passes

Search period start: 30 October 2014 00:00
Search period end: 09 November 2014 00:00
Orbit: 263 x 33593 km, 28.0° (Epoch: 29 October)

Date Brightness Start Highest point End Pass type
(mag) Time Alt. Az. Time Alt. Az. Time Alt. Az.
31 Oct 4.6 03:07:19 56° SSE 03:08:05 56° SE 12:01:03 10° E visible
02 Nov 4.7 04:18:16 44° WSW 04:24:45 89° NNW 13:25:06 10° E visible
03 Nov 5.1 10:24:32 10° WNW 19:06:28 33° SW 19:13:51 10° SSE visible
04 Nov 5.6 05:29:02 15° WSW 05:47:35 69° NNW 14:42:54 10° ESE visible
05 Nov 6.2 01:09:17 12° E 01:09:17 12° E 01:11:53 10° E visible
05 Nov 9.7 07:17:30 10° ENE 08:13:33 12° ENE 08:54:38 10° ENE visible
07 Nov 5.2 04:27:09 10° ENE 02:19:48 43° ESE 11:04:18 10° E visible
